User: anonymous   Login
Location: Griffin Ranch
(33.6186°N, 110.6622°W)
Time: 09:00:47
(UTC-07:00)
Language:

Cosmos 1812 - Orbit

View from above orbital plane
View from above orbital plane
View from above satellite
View from above satellite

Ground track
Ground track

The orbit data is extracted from the following two-line orbital elements,

1 17295U 87003A   15115.43015937  .00006228  00000-0  36237-3 0  9999
2 17295 082.5169 194.8457 0002218 344.6529 015.4634 15.11887066540411
Epoch (UTC): 25 April 2015 10:19:25
Eccentricity: 0.0002218
inclination: 82.5169°
perigee height: 529 km
apogee height: 532 km
right ascension of ascending node: 194.8457°
argument of perigee: 344.6529°
revolutions per day: 15.11887066
mean anomaly at epoch: 15.4634°
orbit number at epoch: 54041

The dashed part of the orbit path shows where the satellite is in the earth's shadow,  

DLR